Regional Weather Roundup
Issued by NWS

Home | Current Version | Previous Version | Text Only | Print | Product List | Glossary On
Versions: 1 2 3 4 5 6 7 8 9 10 11 12 13 14 15 16 17 18 19 20 21 22 23 24 25 26 27 28 29 30 31 32 33 34 35 36 37 38 39 40 41 42 43 44 45 46 47 48 49 50
000
ASCA44 KEWX 210820
RWRMX

LATIN AMERICA AND CARIBBEAN REGIONAL WEATHER ROUNDUP
NATIONAL WEATHER SERVICE AUSTIN/SAN ANTONIO TX
300 AM CDT TUE APR 21 2015

NOTE: "FAIR" INDICATED FEW OR NO CLOUDS BELOW 12,000 FEET WITH NO
SIGNIFICANT WEATHER AND/OR OBSTRUCTIONS TO VISIBILITY.

BAJA CALIFORNIA

CITY           SKY/WX    TMP DP  RH WIND       PRES   REMARKS
TIJUANA        MOCLDY    61  46  59 CALM      29.93

NORTHWESTERN MEXICO

CITY           SKY/WX    TMP DP  RH WIND       PRES   REMARKS
HERMOSILLO     CLEAR     68  36  30 CALM      29.87F

NORTHEASTERN MEXICO

CITY           SKY/WX    TMP DP  RH WIND       PRES   REMARKS
MONTERREY      CLOUDY    63  61  94 SE5       29.95F
REYNOSA        CLOUDY    61  57  88 NE2       29.95F
CD. VICTORIA   CLOUDY    64  64 100 NW5       29.96F FOG

WESTERN MEXICO

CITY           SKY/WX    TMP DP  RH WIND       PRES   REMARKS
DEL BAJIO      PTCLDY    61  45  55 N6        30.22
GUADALAJARA    CLEAR     61  54  77 CALM      30.11F
MAZATLAN       PTCLDY    63  57  82 NE8       29.82F
P. VALLARTA    CLEAR     72  68  88 N3        29.81F

CENTRAL MEXICO

CITY           SKY/WX    TMP DP  RH WIND       PRES   REMARKS
MEXICO CITY    CLEAR     66  48  52 N5        30.26S
MORELIA        CLEAR     55  46  71 CALM      30.16F
QUERETARO      PTCLDY    59  55  88 E7        30.23F
S. LUIS POTOSI CLEAR     61  55  82 E7        30.15
TOLUCA         CLEAR     50  41  71 CALM      30.34F

SOUTHERN MEXICO

CITY           SKY/WX    TMP DP  RH WIND       PRES   REMARKS
ACAPULCO       CLEAR     77  73  88 E5        29.84F

YUCATAN PENINSULA

CITY           SKY/WX    TMP DP  RH WIND       PRES   REMARKS
CANCUN         PTCLDY    81  75  83 SE12      29.88S
COZUMEL          N/A    N/A N/A N/A MISG        N/A
MERIDA         CLEAR     79  72  78 SE13      29.84S
TAPACHULA      MOCLDY    77  73  88 CALM      29.85S

CENTRAL AMERICA

CITY           SKY/WX    TMP DP  RH WIND       PRES   REMARKS

CARIBBEAN

CITY           SKY/WX    TMP DP  RH WIND       PRES   REMARKS
ARUBA          PTCLDY    81  72  74 E17       29.86S
CURACAO        PTCLDY    79  72  78 SE12      29.89S
KINGSTON       PTCLDY    82  73  74 SE15      29.92S
SAN JUAN       PTCLDY    77  70  78 CALM      30.00S
SANTO DOMINGO  PTCLDY    73  70  88 NE5       29.97F
ST. MAARTEN    PTCLDY    77  66  69 E8        30.00R

$$




USA.gov is the U.S. government's official web portal to all federal, state and local government web resources and services.